Overview Statistics Trail Chart Weather Telemetry Raw packets
 

This is the latest recevied weather packets stored in our database for station/object KQ7A. If no packets are shown the sender has not sent any weather packets the latest 10 day(s).

<< 84 85 86 87 88 89 90 >>
Time Temp. Humidity Pressure Rain* Wind** Luminosity Snow
1788065668 13.33° C 51% 1019.2 hPa 0 mm - 0 W/m² -
1788065366 13.33° C 52% 1019.3 hPa 0 mm - 0 W/m² -
1788065062 13.33° C 50% 1019.2 hPa 0 mm - 0 W/m² -
1788064756 13.33° C 53% 1019.2 hPa 0 mm - 0 W/m² -
1788064451 13.33° C 52% 1019.1 hPa 0 mm - 0 W/m² -
1788064143 13.33° C 50% 1019.4 hPa 0 mm - 0 W/m² -
1788063838 13.89° C 49% 1019.2 hPa 0 mm - 0 W/m² -
1788063537 14.44° C 45% 1019.3 hPa 0 mm - 0 W/m² -
1788063231 13.89° C 48% 1019 hPa 0 mm - 0 W/m² -
1788062927 15° C 46% 1019.2 hPa 0 mm - 0 W/m² -
1788062622 15° C 46% 1019.1 hPa 0 mm - 0 W/m² -
1788062321 15° C 46% 1019.1 hPa 0 mm - 0 W/m² -
1788062020 15° C 49% 1018.9 hPa 0 mm - 0 W/m² -
1788061715 15° C 46% 1018.9 hPa 0 mm - 0 W/m² -
1788061411 15° C 46% 1018.8 hPa 0 mm - 0 W/m² -
1788061105 15° C 44% 1018.6 hPa 0 mm - 0 W/m² -
1788060799 15.56° C 45% 1018.5 hPa 0 mm - 0 W/m² -
1788060495 16.11° C 42% 1018.8 hPa 0 mm - 0 W/m² -
1788060188 16.67° C 39% 1018.5 hPa 0 mm - 0 W/m² -
1788059884 16.11° C 39% 1018.8 hPa 0 mm - 0 W/m² -
1788059579 16.11° C 41% 1018.5 hPa 0 mm - 0 W/m² -
1788059275 17.22° C 38% 1018.5 hPa 0 mm - 0 W/m² -
1788058971 16.67° C 42% 1018.5 hPa 0 mm - 0 W/m² -
1788058670 16.67° C 40% 1018.5 hPa 0 mm - 0 W/m² -
1788058363 17.78° C 42% 1018.4 hPa 0 mm - 0 W/m² -

* Rain latest hour (hover to see other rain measurements)
** Current wind speed in m/s (hover to see current wind gust speed)